User: anonymous   Login
Location: Unspecified
(0.0000°N, 0.0000°E)
Time: 06:18:17
(UTC+00:00)
Language:

NOSS 2-3 (D) - Orbit

View from above orbital plane
View from above orbital plane
View from above satellite
View from above satellite

Ground track
Ground track

The orbit data is extracted from the following two-line orbital elements,

1 23862U 96029D   19048.73337198 0.00000000  00000-0  00000-0 0    03
2 23862  63.3624 284.3559 0664378  17.6124 342.3875 13.40857451    08
Epoch (UTC): 17 February 2019 17:36:03
Eccentricity: 0.0664378
inclination: 63.3624°
perigee height: 609 km
apogee height: 1603 km
right ascension of ascending node: 284.3559°
argument of perigee: 17.6124°
revolutions per day: 13.40857451
mean anomaly at epoch: 342.3875°
orbit number at epoch: 0

The dashed part of the orbit path shows where the satellite is in the earth's shadow,  

DLR